Weather History for Tomahawk, WI

Change the Weather History Date:

Thursday, May 2, 2013

  Actual Average (KRHI) Record (KRHI)
Temperature  
Mean Temperature 30 °F 49 °F  
Max Temperature 33 °F 61 °F 90 °F (1959)
Min Temperature 28 °F 36 °F 18 °F (1911)
Degree Days  
Heating Degree Days 34 17  
Month to date heating degree days 34  
Since 1 July heating degree days 8534  
Cooling Degree Days 0 0  
Month to date cooling degree days 0  
Year to date cooling degree days 1  
Moisture  
Dew Point 29 °F    
Average Humidity 93    
Maximum Humidity 100    
Minimum Humidity 86    
Precipitation  
Precipitation 0.00 in 0.11 in 1.55 in (1973)
Month to date precipitation 0.21  
Year to date precipitation 6.40  
Snow  
Snow 0.00 in - 0.50 in (1966)
Month to date snowfall  
Since 1 July snowfall  
Snow Depth -    
Sea Level Pressure  
Sea Level Pressure 30.38 in    
Wind  
Wind Speed 8 mph (North)    
Max Wind Speed 13 mph    
Max Gust Speed 20 mph    
Visibility 7 miles    
Events Rain , Snow    
T = Trace of Precipitation, MM = Missing Value Source: NWS Daily Summary

Daily Weather History Graph

Daily Weather History Graph

Search for Another Location

Airport:

Trip Planner

Search our weather history database for the weather conditions in past years. The results will help you decide how hot, cold, wet, or windy it might be!

Date:

Astronomy

May. 02, 2013 Rise Set
Actual Time 5:45 AM CDT 8:07 PM CDT
Civil Twilight 5:12 AM CDT 8:40 PM CDT
Nautical Twilight 4:31 AM CDT 9:21 PM CDT
Astronomical Twilight 3:45 AM CDT 10:08 PM CDT
Moon 1:54 AM CDT (5/2) 12:36 PM CDT (5/2)
Length of Visible Light 15h 27m
Length of Day
14h 22m
Waning Gibbous, 47% of the Moon is Illuminated
May 2
Waning Gibbous
May 9
New
May 17
First Quarter
May 24
Full
May 31
Last Quarter

Hourly Weather History & Observations

Time (CDT) Temp. Windchill Dew Point Humidity Pressure Visibility Wind Dir Wind Speed Gust Speed Precip Events Conditions
12:15 AM 33.8 °F 28.6 °F 30.2 °F 87% 30.38 in 10.0 mi North 5.8 mph - N/A   Overcast
12:35 AM 33.8 °F 25.3 °F 30.2 °F 87% 30.38 in 10.0 mi North 11.5 mph - N/A   Overcast
12:55 AM 32.0 °F 24.8 °F 30.2 °F 93% 30.37 in 10.0 mi North 8.1 mph - N/A Rain Light Rain
1:15 AM 32.0 °F 25.6 °F 30.2 °F 93% 30.39 in 10.0 mi NNW 6.9 mph - N/A   Overcast
1:35 AM 32.0 °F 24.8 °F 30.2 °F 93% 30.39 in 10.0 mi North 8.1 mph - N/A   Overcast
1:55 AM 32.0 °F 24.8 °F 30.2 °F 93% 30.39 in 10.0 mi NNW 8.1 mph - N/A   Overcast
2:15 AM 32.0 °F 25.6 °F 30.2 °F 93% 30.40 in 5.0 mi NNW 6.9 mph - N/A   Overcast
2:35 AM 32.0 °F 24.8 °F 32.0 °F 100% 30.40 in 4.0 mi NNW 8.1 mph - N/A   Light Drizzle
2:55 AM 32.0 °F 25.6 °F 32.0 °F 100% 30.38 in 5.0 mi North 6.9 mph - N/A   Overcast
3:15 AM 32.0 °F 25.6 °F 32.0 °F 100% 30.38 in 5.0 mi North 6.9 mph 16.1 mph N/A   Overcast
3:35 AM 32.0 °F 24.2 °F 32.0 °F 100% 30.38 in 5.0 mi North 9.2 mph - N/A   Overcast
3:55 AM 32.0 °F 24.2 °F 32.0 °F 100% 30.38 in 7.0 mi NNW 9.2 mph 16.1 mph N/A   Overcast
4:15 AM 32.0 °F 26.4 °F 32.0 °F 100% 30.38 in 7.0 mi North 5.8 mph - N/A   Overcast
4:35 AM 32.0 °F 24.8 °F 32.0 °F 100% 30.37 in 5.0 mi North 8.1 mph - N/A   Overcast
4:55 AM 32.0 °F 24.2 °F 32.0 °F 100% 30.37 in 5.0 mi NNW 9.2 mph - N/A   Overcast
5:15 AM 32.0 °F 24.8 °F 32.0 °F 100% 30.37 in 5.0 mi North 8.1 mph - N/A   Overcast
5:35 AM 32.0 °F 24.8 °F 32.0 °F 100% 30.37 in 5.0 mi North 8.1 mph - N/A   Overcast
5:55 AM 32.0 °F 26.4 °F 32.0 °F 100% 30.37 in 3.0 mi North 5.8 mph - N/A   Overcast
6:15 AM 32.0 °F 25.6 °F 32.0 °F 100% 30.38 in 3.0 mi NNW 6.9 mph - N/A   Light Drizzle
6:35 AM 32.0 °F 24.8 °F 32.0 °F 100% 30.38 in 2.0 mi NNW 8.1 mph - N/A   Light Drizzle
6:55 AM 32.0 °F 25.6 °F 32.0 °F 100% 30.38 in 2.0 mi North 6.9 mph - N/A Rain Light Rain
7:15 AM 32.0 °F 23.6 °F 32.0 °F 100% 30.39 in 1.8 mi North 10.4 mph 16.1 mph N/A   Light Drizzle
7:35 AM 32.0 °F 24.2 °F 32.0 °F 100% 30.38 in 1.8 mi North 9.2 mph 17.3 mph N/A   Light Drizzle
7:55 AM 32.0 °F 24.8 °F 30.2 °F 93% 30.39 in 1.5 mi NNW 8.1 mph - N/A   Light Drizzle
8:15 AM 32.0 °F 23.0 °F 30.2 °F 93% 30.39 in 4.0 mi North 11.5 mph 18.4 mph N/A   Overcast
8:35 AM 32.0 °F 24.8 °F 30.2 °F 93% 30.39 in 4.0 mi North 8.1 mph - N/A Rain Light Rain
8:55 AM 32.0 °F 23.6 °F 30.2 °F 93% 30.40 in 2.0 mi North 10.4 mph 18.4 mph N/A   Drizzle
9:15 AM 32.0 °F 25.6 °F 30.2 °F 93% 30.41 in 1.8 mi NNW 6.9 mph - N/A   Drizzle
9:35 AM 32.0 °F 26.4 °F 30.2 °F 93% 30.44 in 1.5 mi NNW 5.8 mph - N/A   Drizzle
9:55 AM 32.0 °F 24.8 °F 30.2 °F 93% 30.43 in 1.8 mi NNW 8.1 mph - N/A Rain Light Rain
10:15 AM 32.0 °F 23.6 °F 30.2 °F 93% 30.40 in 2.0 mi North 10.4 mph - N/A Rain Light Rain
10:35 AM 32.0 °F 24.2 °F 30.2 °F 93% 30.39 in 5.0 mi North 9.2 mph 17.3 mph N/A   Overcast
10:55 AM 32.0 °F 24.8 °F 30.2 °F 93% 30.40 in 5.0 mi North 8.1 mph - N/A Snow Light Snow
11:15 AM 32.0 °F 24.8 °F 30.2 °F 93% 30.41 in 2.5 mi North 8.1 mph - N/A Snow Light Snow
11:35 AM 32.0 °F 25.6 °F 30.2 °F 93% 30.41 in 5.0 mi NNW 6.9 mph - N/A Rain Light Rain
11:55 AM 32.0 °F 24.2 °F 30.2 °F 93% 30.41 in 7.0 mi NNW 9.2 mph - N/A Rain Light Rain
12:35 PM 32.0 °F 25.6 °F 30.2 °F 93% 30.39 in 4.0 mi North 6.9 mph - N/A Rain Light Rain
12:55 PM 32.0 °F 22.5 °F 30.2 °F 93% 30.38 in 7.0 mi North 12.7 mph 18.4 mph N/A   Overcast
1:15 PM 32.0 °F 25.6 °F 30.2 °F 93% 30.38 in 10.0 mi North 6.9 mph - N/A   Overcast
1:35 PM 32.0 °F 24.8 °F 30.2 °F 93% 30.38 in 5.0 mi North 8.1 mph - N/A   Overcast
1:55 PM 32.0 °F 24.2 °F 30.2 °F 93% 30.38 in 10.0 mi North 9.2 mph - N/A   Overcast
2:15 PM 32.0 °F 26.4 °F 28.4 °F 87% 30.39 in 10.0 mi NNW 5.8 mph - N/A   Overcast
2:35 PM 32.0 °F 24.2 °F 28.4 °F 87% 30.40 in 10.0 mi North 9.2 mph - N/A   Overcast
2:55 PM 32.0 °F 25.6 °F 28.4 °F 87% 30.40 in 10.0 mi North 6.9 mph - N/A   Overcast
3:15 PM 32.0 °F 24.8 °F 28.4 °F 87% 30.37 in 10.0 mi NNW 8.1 mph 18.4 mph N/A   Overcast
3:35 PM 30.2 °F 20.2 °F 28.4 °F 93% 30.35 in 10.0 mi North 12.7 mph 18.4 mph N/A   Overcast
3:55 PM 30.2 °F 21.9 °F 28.4 °F 93% 30.37 in 10.0 mi North 9.2 mph 16.1 mph N/A   Overcast
4:15 PM 30.2 °F 23.4 °F 28.4 °F 93% 30.38 in 3.0 mi North 6.9 mph 16.1 mph N/A   Overcast
4:35 PM 30.2 °F 21.9 °F 28.4 °F 93% 30.38 in 4.0 mi North 9.2 mph - N/A Rain Light Freezing Rain
4:55 PM 30.2 °F 22.6 °F 28.4 °F 93% 30.38 in 10.0 mi NNW 8.1 mph - N/A   Light Freezing Rain
5:15 PM 30.2 °F 21.9 °F 28.4 °F 93% 30.37 in 7.0 mi North 9.2 mph 16.1 mph N/A   Overcast
5:35 PM 30.2 °F 23.4 °F 26.6 °F 86% 30.38 in 10.0 mi North 6.9 mph - N/A   Overcast
5:55 PM 30.2 °F 23.4 °F 26.6 °F 86% 30.37 in 10.0 mi North 6.9 mph - N/A   Overcast
6:15 PM 30.2 °F 24.3 °F 28.4 °F 93% 30.37 in 2.0 mi North 5.8 mph - N/A Snow Light Snow
6:35 PM 30.2 °F 21.3 °F 28.4 °F 93% 30.36 in 4.0 mi North 10.4 mph 19.6 mph N/A Snow Light Snow
6:55 PM 30.2 °F 22.6 °F 26.6 °F 86% 30.35 in 10.0 mi NNW 8.1 mph - N/A   Overcast
7:15 PM 30.2 °F 22.6 °F 26.6 °F 86% 30.35 in 10.0 mi North 8.1 mph - N/A Rain Light Freezing Rain
7:35 PM 30.2 °F 22.6 °F 26.6 °F 86% 30.36 in 7.0 mi North 8.1 mph - N/A   Overcast
7:55 PM 30.2 °F 25.4 °F 28.4 °F 93% 30.36 in 3.0 mi NNW 4.6 mph - N/A Snow Light Snow
8:15 PM 30.2 °F 21.9 °F 28.4 °F 93% 30.35 in 5.0 mi North 9.2 mph - N/A Snow Light Snow
8:35 PM 30.2 °F 23.4 °F 26.6 °F 86% 30.35 in 10.0 mi North 6.9 mph - N/A   Overcast
8:55 PM 30.2 °F 23.4 °F 26.6 °F 86% 30.35 in 10.0 mi North 6.9 mph - N/A   Overcast
9:15 PM 30.2 °F 22.6 °F 26.6 °F 86% 30.34 in 10.0 mi North 8.1 mph - N/A   Overcast
9:35 PM 30.2 °F 22.6 °F 26.6 °F 86% 30.33 in 10.0 mi North 8.1 mph - N/A   Overcast
9:55 PM 30.2 °F 24.3 °F 26.6 °F 86% 30.34 in 10.0 mi North 5.8 mph - N/A   Overcast
10:15 PM 30.2 °F 23.4 °F 26.6 °F 86% 30.33 in 10.0 mi North 6.9 mph - N/A   Overcast
10:35 PM 30.2 °F 24.3 °F 26.6 °F 86% 30.33 in 10.0 mi North 5.8 mph - N/A   Overcast
10:55 PM 28.4 °F 19.7 °F 26.6 °F 93% 30.33 in 10.0 mi North 9.2 mph - N/A   Overcast
11:15 PM 28.4 °F 21.2 °F 26.6 °F 93% 30.34 in 10.0 mi North 6.9 mph - N/A   Overcast
11:35 PM 28.4 °F 19.7 °F 26.6 °F 93% 30.33 in 10.0 mi North 9.2 mph - N/A   Overcast
11:55 PM 28.4 °F 21.2 °F 26.6 °F 93% 30.33 in 10.0 mi NNW 6.9 mph - N/A   Overcast